Overview Statistics Trail Chart Weather Telemetry Raw packets
 

This is the latest recevied weather packets stored in our database for station/object ea1bqo-1. If no packets are shown the sender has not sent any weather packets the latest 10 day(s).

<< 1 2 3 4 5 6 >>
Time Temp. Humidity Pressure Rain* Wind** Luminosity Snow
1788585240 19.44° C 60% 1019.1 hPa 0 mm - - -
1788584700 19.44° C 57% 1019.1 hPa 0 mm - - -
1788584160 19.44° C 56% 1019.3 hPa 0 mm - - -
1788583620 19.44° C 56% 1019.4 hPa 0 mm - - -
1788583080 19.44° C 56% 1019.5 hPa 0 mm - - -
1788582540 19.44° C 58% 1019.6 hPa 0 mm - - -
1788582000 19.44° C 58% 1019.5 hPa 0 mm - - -
1788581460 19.44° C 58% 1019.5 hPa 0 mm - - -
1788580920 19.44° C 58% 1019.6 hPa 0 mm - - -
1788580380 19.44° C 57% 1019.6 hPa 0 mm - - -
1788579840 19.44° C 58% 1019.6 hPa 0 mm - - -
1788579300 19.44° C 59% 1019.5 hPa 0 mm - - -
1788578760 18.89° C 60% 1019.4 hPa 0 mm - - -
1788578220 18.89° C 62% 1019.4 hPa 0 mm - - -
1788577680 18.33° C 62% 1019.4 hPa 0 mm - - -
1788577140 18.33° C 62% 1019.4 hPa 0 mm - - -
1788576600 18.89° C 61% 1019.5 hPa 0 mm - - -
1788576060 18.89° C 61% 1019.3 hPa 0 mm - - -
1788575520 18.89° C 62% 1019.3 hPa 0 mm - - -
1788574980 18.33° C 62% 1019.3 hPa 0 mm - - -
1788574440 18.89° C 59% 1019.4 hPa 0 mm - - -
1788573900 18.89° C 56% 1019.3 hPa 0 mm - - -
1788573360 19.44° C 56% 1019.1 hPa 0 mm - - -
1788572820 19.44° C 55% 1019.1 hPa 0 mm - - -
1788572280 20° C 54% 1019.1 hPa 0 mm - - -

* Rain latest hour (hover to see other rain measurements)
** Current wind speed in m/s (hover to see current wind gust speed)